Weather in Salemal

Russia / Yamalo-Nenets Autonomous Okrug     66°45′41″N   69°09′18″E
temp.,
°C
wind,
m/s
gust,
m/s
humid.,
%
clouds,
%
prec.,
mm/h
press.,
hPa
HPBL,
m
25 june, sat
sat2523:00+9ese449783 4.1 99540
02:00+9nne8118453 0.1 994102
05:00+9ne8119031 0.3 994130
08:00+9ne710834 0.0 994155
11:00+11ne8127347 0.1 994201
14:00+10ne71077100 0.3 995236
17:00+12ne91367100 0.6 996280
20:00+12nne101560100 0.1 996208
26 june, sun
sun2623:00+10nne111662100 0.1 996190
02:00+9nne111766100 0.3 998208
05:00+7nne10157299 2.4 999194
08:00+8nne9127399 0.1 1001204
11:00+8ne71069100 0.1 1002250
14:00+10nne7105773 0.0 1002315
17:00+11nne7105318 0.0 1002339
20:00+10nne7105436 0.0 1002300
27 june, mon
mon2723:00+8n5661100 0.0 100258
02:00+7n71062100 0.0 1002109
05:00+6n81162100 0.0 1002143
08:00+7n91262100 0.0 1002221
11:00+8n91254100 0.0 1001319
14:00+10n91250100 0.0 1000363
17:00+7nne71176100 0.3 1001286
20:00+8n111777100 1.9 999347
28 june, tue
tue2823:00+7n121775100 3.1 999293
02:00+7nne101476100 0.3 1000185
05:00+7nne10166894 0.3 1002209
08:00+7n131863100 0.0 1004264
11:00+10nne131753100 0.0 1005309
14:00+11nne1217465 0.0 1006346
17:00+11nne1116465 0.0 1007348
20:00+8n1216566 0.0 1009303
29 june, wed
wed2923:00+5n1116675 0.0 1009250
02:00+4n10157592 0.0 1009276
05:00+4n11167594 0.0 1009347
08:00+5n1014665 0.0 1009291
11:00+6n912578 0.0 1009301
14:00+6nnw9116297 0.0 1008312
17:00+6n81163100 0.0 1008301
20:00+6n8116837 0.0 1008225